McKinleyville, CA

7:51 AM PST on February 20, 2017 (GMT -0800)
Arcata

Weather History for KACV - January, 2014

Change the Weather History Date:

Sunday, January 19, 2014

  Actual Average Record
Temperature  
Mean Temperature 47 °F -  
Max Temperature 57 °F 54 °F 70 °F (2009)
Min Temperature 37 °F 39 °F 28 °F (2013)
Degree Days  
Heating Degree Days 18    
Moisture  
Dew Point 41 °F    
Average Humidity 91    
Maximum Humidity 100    
Minimum Humidity 64    
Precipitation  
Precipitation 0.00 in - - ()
Sea Level Pressure  
Sea Level Pressure 30.12 in    
Wind  
Wind Speed 3 mph (North)    
Max Wind Speed 8 mph    
Max Gust Speed -    
Visibility 3 miles    
Events Fog    
Averages and records for this station are not official NWS values.
T = Trace of Precipitation, MM = Missing Value Source: NWS Daily Summary

Daily Weather History Graph

Daily Weather History Graph

Search for Another Location

Airport or City:

Trip Planner

Search our weather history database for the weather conditions in past years. The results will help you decide how hot, cold, wet, or windy it might be!

Date:

Astronomy

Jan. 19, 2014 Rise Set
Actual Time 7:37 AM PST 5:17 PM PST
Civil Twilight 7:07 AM PST 5:47 PM PST
Nautical Twilight 6:33 AM PST 6:21 PM PST
Astronomical Twilight 6:00 AM PST 6:54 PM PST
Moon 9:03 PM PST (1/19) 9:08 AM PST (1/19)
Length of Visible Light 10h 40m
Length of Day
9h 40m
Waning Gibbous, 89% of the Moon is Illuminated
Jan 19
Waning Gibbous
Jan 23
Last Quarter
Jan 30
New
Feb 6
First Quarter
Feb 14
Full

Hourly Weather History & Observations

Time (PST) Temp. Windchill Dew Point Humidity Pressure Visibility Wind Dir Wind Speed Gust Speed Precip Events Conditions
12:51 AM 41.0 °F - 39.2 °F 93% 30.11 in 0.5 mi Calm Calm - N/A Fog Fog
12:53 AM 41.0 °F - 39.9 °F 96% 30.13 in 0.5 mi Calm Calm - N/A Fog Fog
1:20 AM 39.0 °F 36.8 °F 37.0 °F 93% 30.10 in 0.5 mi East 3.5 mph - N/A Fog Fog
1:26 AM 37.9 °F 35.5 °F 37.0 °F 97% 30.10 in 1.2 mi East 3.5 mph - N/A   Scattered Clouds
1:31 AM 37.9 °F 34.4 °F 36.0 °F 93% 30.10 in 3.0 mi East 4.6 mph - N/A   Scattered Clouds
1:53 AM 37.9 °F - 36.0 °F 93% 30.13 in 7.0 mi Calm Calm - N/A   Partly Cloudy
2:02 AM 37.9 °F - 37.0 °F 97% 30.11 in 4.0 mi Calm Calm - N/A   Mostly Cloudy
2:05 AM 37.9 °F - 36.0 °F 93% 30.11 in 1.8 mi Calm Calm - N/A   Mostly Cloudy
2:14 AM 39.0 °F - 37.0 °F 93% 30.11 in 0.2 mi Calm Calm - N/A Fog Fog
2:25 AM 39.0 °F - 37.9 °F 96% 30.12 in 0.2 mi Calm Calm - N/A Fog Fog
2:53 AM 41.0 °F - 39.0 °F 93% 30.14 in 0.2 mi Calm Calm - N/A Fog Fog
3:50 AM 39.2 °F - 37.4 °F 93% 30.11 in 0.2 mi Calm Calm - N/A Fog Fog
3:53 AM 39.0 °F - 37.9 °F 96% 30.13 in 0.2 mi Calm Calm - N/A Fog Fog
4:22 AM 37.9 °F 35.5 °F 37.0 °F 97% 30.10 in 0.5 mi North 3.5 mph - N/A Fog Fog
4:43 AM 39.9 °F 35.8 °F 37.0 °F 89% 30.08 in 0.2 mi East 5.8 mph - N/A Fog Fog
4:50 AM 39.2 °F 37.0 °F 37.4 °F 93% 30.09 in 0.5 mi ESE 3.5 mph - N/A Fog Fog
4:53 AM 39.0 °F 35.7 °F 37.9 °F 96% 30.11 in 0.8 mi ESE 4.6 mph - N/A   Mist
4:57 AM 39.0 °F 33.4 °F 37.9 °F 96% 30.08 in 2.0 mi ESE 8.1 mph - N/A   Mostly Cloudy
5:01 AM 39.9 °F 35.8 °F 37.9 °F 93% 30.08 in 8.0 mi ESE 5.8 mph - N/A   Scattered Clouds
5:48 AM 37.4 °F 32.1 °F 37.4 °F 100% 30.09 in 1.2 mi WNW 6.9 mph - N/A   Scattered Clouds
5:50 AM 39.2 °F 35.0 °F 37.4 °F 93% 30.10 in 0.8 mi West 5.8 mph - N/A   Mist
5:53 AM 39.9 °F 35.8 °F 37.9 °F 93% 30.12 in 0.5 mi West 5.8 mph - N/A Fog Fog
6:14 AM 41.0 °F 38.0 °F 39.0 °F 93% 30.10 in 0.8 mi NE 4.6 mph - N/A   Mist
6:51 AM 42.8 °F - 41.0 °F 93% 30.11 in 0.2 mi Calm Calm - N/A Fog Fog
6:53 AM 42.1 °F 40.2 °F 41.0 °F 96% 30.14 in 0.2 mi NNE 3.5 mph - N/A Fog Fog
7:53 AM 43.0 °F 40.3 °F 41.0 °F 93% 30.15 in 0.2 mi SSE 4.6 mph - N/A Fog Fog
8:10 AM 43.0 °F 40.3 °F 42.1 °F 97% 30.13 in 0.2 mi South 4.6 mph - N/A Fog Fog
8:53 AM 43.0 °F - 42.1 °F 97% 30.16 in 0.2 mi Calm Calm - N/A Fog Fog
9:06 AM 43.0 °F 40.3 °F 42.1 °F 97% 30.13 in 0.2 mi ESE 4.6 mph - N/A Fog Fog
9:10 AM 43.0 °F 40.3 °F 41.0 °F 93% 30.13 in 1.0 mi ESE 4.6 mph - N/A   Mist
9:17 AM 43.0 °F - 42.1 °F 97% 30.13 in 10.0 mi Calm Calm - N/A   Scattered Clouds
9:53 AM 46.9 °F - 45.0 °F 93% 30.17 in 10.0 mi NW 4.6 mph - N/A   Clear
10:00 AM 46.0 °F 43.1 °F 43.0 °F 89% 30.15 in 2.5 mi WNW 5.8 mph - N/A   Partly Cloudy
10:08 AM 46.0 °F 43.9 °F 44.1 °F 93% 30.15 in 1.5 mi NW 4.6 mph - N/A   Mostly Cloudy
10:14 AM 46.0 °F 43.9 °F 44.1 °F 93% 30.15 in 2.0 mi NW 4.6 mph - N/A   Mostly Cloudy
10:22 AM 46.9 °F - 44.1 °F 90% 30.15 in 3.0 mi NNW 4.6 mph - N/A   Scattered Clouds
10:53 AM 52.0 °F - 46.0 °F 80% 30.17 in 6.0 mi NNE 3.5 mph - N/A   Haze
11:53 AM 48.9 °F - 45.0 °F 86% 30.15 in 5.0 mi NW 4.6 mph - N/A   Clear
12:34 PM 48.9 °F - 45.0 °F 86% 30.11 in 2.5 mi NW 6.9 mph - N/A   Partly Cloudy
12:42 PM 48.0 °F - 44.1 °F 86% 30.11 in 1.5 mi NW 8.1 mph - N/A   Mostly Cloudy
12:47 PM 46.4 °F 42.4 °F 44.6 °F 93% 30.11 in 0.2 mi NW 8.1 mph - N/A Fog Fog
12:53 PM 46.9 °F - 44.1 °F 90% 30.13 in 0.2 mi NW 6.9 mph - N/A Fog Fog
1:00 PM 46.9 °F - 45.0 °F 93% 30.10 in 0.2 mi NNW 6.9 mph - N/A Fog Fog
1:12 PM 46.9 °F - 45.0 °F 93% 30.10 in 0.2 mi NNW 6.9 mph - N/A Fog Fog
1:19 PM 48.0 °F - 45.0 °F 89% 30.10 in 1.0 mi North 4.6 mph - N/A   Mist
1:22 PM 48.0 °F - 45.0 °F 89% 30.10 in 2.0 mi NNW 3.5 mph - N/A   Mostly Cloudy
1:29 PM 48.9 °F - 46.0 °F 90% 30.10 in 7.0 mi NW 4.6 mph - N/A   Mostly Cloudy
1:39 PM 48.9 °F - 45.0 °F 86% 30.09 in 0.8 mi NW 5.8 mph - N/A   Mist
1:53 PM 48.9 °F - 46.0 °F 90% 30.12 in 1.0 mi NW 3.5 mph - N/A   Mist
1:57 PM 50.0 °F - 46.0 °F 86% 30.09 in 3.0 mi NNW 3.5 mph - N/A   Mostly Cloudy
2:08 PM 51.1 °F - 45.0 °F 80% 30.09 in 7.0 mi WNW 4.6 mph - N/A   Scattered Clouds
2:53 PM 52.0 °F - 45.0 °F 77% 30.12 in 10.0 mi NNW 4.6 mph - N/A   Clear
3:53 PM 57.0 °F - 45.0 °F 64% 30.11 in 10.0 mi Calm Calm - N/A   Clear
4:53 PM 54.0 °F - 46.0 °F 75% 30.11 in 6.0 mi WSW 4.6 mph - N/A   Haze
5:01 PM 51.1 °F - 45.0 °F 80% 30.08 in 1.8 mi West 3.5 mph - N/A   Haze
5:37 PM 48.0 °F - 44.1 °F 86% 30.08 in 3.0 mi East 3.5 mph - N/A   Clear
5:53 PM 48.0 °F - 45.0 °F 89% 30.11 in 9.0 mi Calm Calm - N/A   Clear
6:53 PM 45.0 °F 43.5 °F 42.1 °F 90% 30.12 in 8.0 mi East 3.5 mph - N/A   Clear
7:53 PM 44.1 °F - 42.1 °F 93% 30.12 in 5.0 mi Calm Calm - N/A   Clear
8:22 PM 43.0 °F - 41.0 °F 93% 30.11 in 4.0 mi Calm Calm - N/A   Scattered Clouds
8:53 PM 44.1 °F 42.5 °F 41.0 °F 89% 30.13 in 7.0 mi ENE 3.5 mph - N/A   Clear
9:53 PM 43.0 °F - 39.9 °F 89% 30.14 in 8.0 mi Calm Calm - N/A   Clear
10:16 PM 42.1 °F 39.2 °F 39.9 °F 92% 30.12 in 1.8 mi East 4.6 mph - N/A   Clear
10:28 PM 43.0 °F 41.3 °F 39.9 °F 89% 30.12 in 3.0 mi East 3.5 mph - N/A   Clear
10:53 PM 41.0 °F 39.0 °F 39.0 °F 93% 30.14 in 3.0 mi East 3.5 mph - N/A   Clear
11:53 PM 41.0 °F 39.0 °F 37.9 °F 89% 30.13 in 10.0 mi East 3.5 mph - N/A   Clear